CAPE
0 0 0 0 10 51 162 288 139 111 11 15 176 291 835 1261 988 1148 1132 1159 1001 801 774 907 1015 1054 1001 1199 1505 1158 1105 1625 1374 1523 1661 1468 1397 2239 2545 2618 2562 2023 2155 2165
0 0 0 0 8 28 49 139 181 123 91 43 43 255 290 1121 1125 954 1054 1146 1176 993 836 879 986 971 988 1157 1738 1702 1701 1901 1746 1497 1614 1627 2827 2532 2879 2449 2837 2250 2003 1947
0 0 0 0 2 6 17 52 152 210 217 59 65 162 203 266 649 986 990 980 1051 1135 947 965 921 983 1031 1105 1306 1955 2399 2735 2460 2369 2042 1939 2126 2763 1574 1430 1840 2020 1763 1890
0 0 0 0 0 0 0 1 9 121 199 127 223 215 298 519 550 859 911 1013 948 1032 919 832 806 774 980 1157 1340 1676 2877 3042 2887 2845 2958 3709 2737 1940 1978 2139 1881 1861 2363 2237
0 0 0 0 0 0 0 0 36 138 100 162 142 168 170 429 338 461 1028 870 954 1028 1046 936 848 695 513 755 1144 1693 2538 3575 3815 3214 3535 2663 3164 2025 1908 1853 2138 2531 2741 2156
0 0 0 0 0 0 0 0 7 31 15 80 169 255 141 255 9 218 329 522 897 952 1099 1019 992 1040 911 710 1144 1667 2597 4053 3652 3299 3002 3086 3731 2301 1915 2009 2439 2225 2510 1571
0 0 0 0 0 0 0 0 3 9 81 43 149 182 268 182 163 235 135 139 623 936 1118 1106 1084 1256 1335 1258 1332 1750 2839 3476 3467 2972 2840 2992 2819 2887 2575 2747 2111 2428 811 291
0 0 0 0 0 0 0 0 0 9 47 47 110 223 241 155 89 30 85 135 540 929 1000 1236 1147 1390 1732 1712 1683 1795 2638 3134 3077 2978 3192 3274 3199 2802 2461 2665 2279 1076 250 486
0 0 0 0 0 0 0 0 0 0 3 21 107 8 141 225 73 92 169 203 438 821 1040 1210 1266 1384 1671 1906 1950 2028 2729 3270 2975 3114 3568 3792 3583 3252 2797 2791 2314 613 574 1228
0 0 0 0 0 0 0 0 0 0 0 13 62 187 203 239 120 63 244 132 372 817 1004 1180 1287 1415 1559 1900 2045 2119 2660 3107 2771 2340 3105 3411 3263 3128 2966 2868 2035 670 1184 1858
0 0 0 0 0 0 0 0 0 0 3 24 99 122 142 143 23 85 186 244 378 552 955 991 1251 1460 1462 1708 2025 2164 2491 2646 2325 2210 3056 3562 3036 2976 3336 2465 1169 1223 1637 1871
0 0 0 0 0 0 0 0 0 2 14 185 170 194 0 5 64 11 137 248 510 510 832 965 1304 1535 1667 1904 2257 2357 2551 2322 2163 2681 3659 3010 3152 3494 2638 2201 1077 1507 1902 1945
0 0 0 0 0 0 0 0 0 0 32 107 158 55 96 84 58 28 49 329 665 1050 960 1133 1489 1813 1951 2081 3443 3333 2669 2755 2478 3275 2782 3155 2962 2812 2521 1956 1049 1480 1980 2364
0 0 0 13 6 0 0 0 0 0 28 61 94 34 64 85 103 169 700 633 656 1512 1361 1389 1816 2144 2439 2874 3632 3893 3564 3533 3655 3256 3415 3907 3698 3242 2289 1896 2092 2057 2104 1706
0 0 26 4 4 0 0 0 0 0 2 26 59 7 132 87 51 273 580 945 778 1794 1570 1712 2016 2318 2976 3454 3499 3539 4123 4166 4020 4090 4380 3682 3491 3089 2466 1593 2644 1688 1602 922
4 4 3 43 31 53 0 0 0 0 9 2 5 30 77 4 82 224 1018 1098 1230 1829 1830 1915 2093 2635 3842 3884 3436 3492 3738 3592 3635 3863 3239 2788 2230 1718 1285 830 1238 830 536 173
97 82 100 106 83 52 161 38 0 0 2 17 46 86 63 47 36 48 797 1081 1367 1936 2248 2681 2948 3896 3496 3213 3332 3374 3135 3175 2805 2488 2168 1721 1255 764 691 396 353 102 44 17
48 114 173 179 124 118 78 111 79 4 6 15 47 39 12 10 6 48 433 1047 1308 2195 2623 3338 4030 3396 2983 2987 3052 2873 2000 1280 1361 1968 1715 1525 916 886 513 246 88 8 0 0
56 73 98 214 236 175 105 251 193 504 23 815 831 652 411 232 374 1526 1891 1320 1415 2346 3174 3699 3613 2882 2902 2590 2582 1957 1732 1286 1637 1419 1761 1668 1049 936 470 231 137 31 5 2
84 155 108 119 212 284 346 210 271 296 424 1184 1464 1484 1439 1329 251 1972 2291 1972 1873 2286 2784 3517 3083 2690 2810 2142 1909 2330 1862 1341 1386 1972 1785 1726 1429 1064 685 493 312 47 5 0
433 163 71 231 250 287 579 587 446 274 924 1220 1347 1620 1666 1690 1693 1885 2534 2382 2069 2290 2748 2654 3089 2921 3080 2863 2355 2648 2099 1426 1243 1277 1838 1898 1094 1000 693 483 302 8 0 0
255 348 540 344 464 501 762 657 788 1124 987 1097 1496 1735 1799 1617 1984 3096 2607 2679 2817 2156 2608 2748 3339 3061 3200 2746 2717 2836 1971 1771 1411 1276 1525 2063 1668 970 318 287 120 8 0 0
133 99 232 386 604 232 685 737 997 927 1003 1123 1263 1446 1917 1639 1618 2734 2656 2807 2470 2341 2959 3182 3194 3139 3425 3130 3142 2472 2305 1933 1446 1609 1550 1604 963 517 454 173 10 0 0 0
333 490 605 420 312 720 566 687 773 829 1068 1049 1019 1146 1735 1657 1328 2634 2754 2894 2934 2988 2874 3000 3350 3076 3007 3154 2076 2122 2052 2128 1928 2006 1406 960 1000 307 216 64 0 0 0 0
376 790 505 375 255 397 680 778 557 489 739 828 996 1547 1691 1482 1469 2514 3011 2716 3039 2834 2913 3373 3501 3410 3079 2336 2249 2080 1813 1588 1366 1036 838 966 331 367 138 92 0 0 0 0
65 85 225 366 876 913 841 635 328 303 584 850 824 1113 1448 1527 1540 2580 3140 2843 2386 2704 2987 3392 2968 2622 2300 2151 1894 1802 1517 1485 1096 1240 1034 640 355 104 0 0 0 0 0 0
CIN
-0 -0 -0 -0 -0 -16 -0 -1 -0 -1 -36 -37 -1 -0 -3 -12 -18 -10 -21 -48 -59 -57 -41 -10 -1 -0 -0 -14 -28 -43 -30 -8 -7 -1 -0 -0 -0 -4 -11 -8 -0 -0 -0 -0
-0 -0 -0 -0 -0 -0 -1 -0 -0 -0 -8 -19 -15 -0 -0 -3 -14 -17 -16 -25 -49 -47 -36 -28 -14 -1 -0 -0 -3 -19 -16 -12 -19 -0 -0 -0 -5 -15 -33 -29 -4 -0 -2 -5
-0 -0 -0 -0 -0 -0 -13 -3 -0 -3 -0 -31 -17 -6 -1 -3 -5 -10 -13 -20 -36 -49 -48 -22 -26 -12 -1 -1 -4 -1 -5 -0 -6 -0 -0 -0 -0 -3 -20 -10 -12 -12 -13 -2
-0 -0 -0 -0 -0 -0 -0 -0 -0 -1 -6 -0 -1 -0 -50 -0 -7 -20 -10 -12 -19 -57 -46 -31 -19 -32 -13 -1 -8 -10 -1 -0 -2 -2 -0 -0 -0 -3 -3 -0 -9 -12 -0 -0
-0 -0 -0 -0 -0 -0 -0 -0 -0 -0 -0 -0 -0 -0 -0 -5 -0 -1 -2 -7 -10 -21 -44 -37 -12 -34 -57 -39 -22 -13 -6 -0 -0 -1 -3 -0 -0 -0 -0 -0 -0 -0 -0 -0
-0 -0 -0 -0 -0 -0 -0 -0 -55 -22 -21 -1 -0 -0 -0 -19 -192 -0 -0 -0 -6 -13 -26 -27 -13 -0 -27 -43 -29 -18 -21 -0 -0 -0 -4 -0 -0 -0 -0 -0 -2 -0 -7 -0
-0 -0 -0 -0 -0 -0 -0 -0 -2 -0 -1 -13 -0 -1 -1 -2 -20 -0 -1 -4 -3 -14 -11 -19 -24 -14 -21 -40 -36 -27 -28 -12 -6 -5 -4 -0 -0 -0 -0 -0 -0 -0 -0 -1
-0 -0 -0 -0 -0 -0 -0 -0 -0 -0 -0 -0 -1 -0 -1 -3 -10 -19 -18 -1 -5 -3 -8 -15 -22 -19 -34 -44 -50 -37 -47 -31 -20 -10 -0 -0 -0 -0 -0 -3 -0 -0 -7 -5
-0 -0 -0 -0 -0 -0 -0 -0 -0 -0 -0 -0 -29 -525 -4 -0 -7 -1 -0 -0 -3 -7 -11 -14 -15 -20 -28 -42 -59 -52 -60 -43 -36 -7 -0 -0 -0 -0 -3 -1 -1 -15 -2 -4
-0 -0 -0 -0 -0 -0 -0 -0 -0 -0 -0 -0 -2 -7 -0 -1 -1 -7 -0 -5 -0 -2 -10 -6 -16 -21 -17 -33 -49 -59 -71 -56 -54 -32 -2 -0 -0 -0 -1 -0 -2 -15 -1 -0
-0 -0 -0 -0 -0 -0 -0 -0 -0 -0 -0 -0 -2 -2 -110 -1 -20 -3 -0 -1 -0 -0 -4 -4 -18 -19 -34 -45 -57 -68 -73 -68 -56 -41 -6 -0 -0 -0 -0 -0 -7 -0 -0 -0
-0 -0 -0 -0 -0 -0 -0 -0 -0 -0 -0 -0 -2 -3 -0 -8 -0 -10 -0 -0 -1 -7 -0 -7 -14 -20 -63 -73 -79 -85 -68 -64 -55 -28 -1 -0 -0 -0 -0 -0 -14 -0 -0 -0
-0 -0 -0 -0 -0 -0 -0 -0 -0 -0 -0 -2 -0 -22 -4 -0 -0 -4 -2 -0 -4 -23 -9 -19 -21 -59 -90 -91 -40 -40 -69 -47 -38 -16 -38 -2 -1 -0 -0 -0 -1 -0 -0 -1
-0 -0 -0 -0 -1 -0 -0 -0 -0 -0 -0 -1 -0 -0 -0 -1 -1 -1 -2 -4 -5 -25 -29 -25 -35 -76 -96 -74 -32 -20 -35 -15 -20 -35 -3 -0 -0 -0 -0 -0 -0 -0 -0 -0
-0 -0 -0 -0 -0 -0 -0 -0 -0 -0 -0 -0 -0 -54 -1 -1 -9 -1 -8 -14 -18 -36 -55 -51 -66 -91 -83 -65 -66 -53 -6 -17 -16 -2 -0 -0 -0 -0 -2 -5 -0 -23 -0 -11
-0 -0 -2 -0 -0 -0 -0 -0 -0 -0 -0 -0 -0 -0 -2 -18 -0 -3 -2 -27 -27 -35 -46 -69 -84 -109 -67 -69 -89 -58 -25 -31 -14 -0 -0 -2 -0 -2 -24 -9 -6 -25 -49 -87
-15 -4 -18 -16 -19 -4 -1 -0 -0 -0 -0 -0 -0 -0 -1 -0 -2 -1 -6 -31 -18 -40 -56 -77 -101 -103 -118 -134 -98 -65 -45 -22 -36 -34 -41 -37 -23 -10 -15 -5 -21 -65 -135 -191
-19 -7 -0 -0 -0 -0 -2 -4 -0 -0 -0 -0 -1 -0 -2 -0 -4 -0 -2 -28 -20 -28 -62 -89 -80 -140 -156 -122 -106 -80 -141 -231 -187 -77 -51 -31 -49 -8 -13 -20 -109 -0 -0 -0
-14 -39 -5 -0 -0 -0 -1 -3 -54 -30 -1 -11 -8 -2 -3 -0 -0 -7 -28 -26 -19 -26 -51 -48 -82 -129 -128 -162 -139 -177 -163 -210 -122 -108 -35 -21 -67 -22 -36 -63 -93 -106 -0 -0
-24 -10 -7 -0 -0 -0 -0 -4 -3 -0 -0 -28 -29 -22 -18 -12 -0 -14 -61 -58 -37 -33 -62 -22 -62 -86 -66 -140 -198 -117 -128 -192 -137 -37 -31 -1 -6 -13 -42 -43 -40 -88 -0 -0
-0 -5 -12 -0 -0 -0 -25 -12 -7 -3 -9 -39 -56 -39 -45 -21 -22 -50 -70 -77 -61 -59 -43 -38 -11 -27 -15 -15 -67 -34 -75 -165 -162 -115 -3 -0 -15 -3 -19 -28 -29 -0 -0 -0
-1 -2 -0 -1 -5 -2 -0 -4 -0 -20 -43 -54 -50 -41 -46 -54 -29 -51 -122 -107 -55 -93 -32 -7 -1 -9 -5 -22 -17 -0 -54 -83 -114 -80 -20 -0 -0 -15 -80 -57 -86 -0 -0 -0
-11 -10 -1 -9 -1 -278 -55 -14 -28 -23 -35 -33 -49 -43 -31 -34 -33 -42 -87 -64 -58 -63 -10 -2 -19 -21 -5 -1 -0 -1 -15 -47 -89 -39 -28 -2 -20 -53 -29 -67 -1 -0 -0 -0
-2 -8 -0 -0 -1 -0 -0 -3 -32 -35 -31 -31 -27 -29 -23 -26 -46 -13 -49 -35 -7 -9 -34 -10 -10 -21 -21 -2 -57 -46 -56 -12 -11 -1 -4 -12 -3 -94 -76 -104 -0 -0 -0 -0
-0 -4 -0 -0 -0 -0 -0 -1 -39 -43 -35 -33 -34 -10 -13 -19 -9 -1 -24 -78 -41 -40 -19 -7 -3 -0 -7 -65 -75 -80 -129 -79 -71 -74 -34 -0 -56 -57 -76 -26 -0 -0 -0 -0
-24 -15 -0 -3 -2 -7 -40 -1 -27 -40 -28 -24 -34 -28 -8 -18 -0 -5 -27 -81 -156 -121 -72 -25 -37 -52 -70 -91 -114 -104 -86 -62 -86 -30 -7 -7 -23 -84 -0 -0 -0 -0 -0 -0
Wind_Speed
19 17 19 21 20 18 10 12 9 7 2 8 12 8 15 17 14 15 17 17 17 17 18 19 17 16 17 17 14 12 12 11 9 8 8 7 7 4 3 3 1 1 3 3
18 19 19 20 21 14 17 13 15 10 9 8 12 10 13 19 14 14 16 18 18 18 18 18 19 18 17 16 18 15 13 12 11 9 8 7 3 2 4 6 6 2 3 2
19 15 20 22 19 17 12 17 17 10 3 8 18 17 18 11 15 14 15 16 20 19 19 20 20 19 18 17 16 17 15 13 12 10 7 6 4 1 1 1 1 3 4 4
12 18 10 14 13 16 18 17 16 15 7 11 3 12 18 16 13 16 16 16 18 20 19 18 20 19 19 18 16 15 17 14 14 11 9 8 8 7 6 5 4 1 4 4
16 15 15 15 17 18 20 15 17 7 15 15 18 11 12 16 12 19 15 16 17 22 20 19 18 19 18 17 16 16 16 15 13 12 10 8 9 7 7 4 5 4 4 3
18 3 12 15 15 16 17 14 12 13 14 15 18 14 13 3 27 7 11 10 15 18 21 20 18 19 17 16 15 15 15 13 14 12 12 10 10 6 4 4 5 5 8 7
15 16 11 13 14 14 13 14 12 13 14 13 19 16 10 11 5 12 7 5 8 17 19 19 18 15 15 16 16 15 16 15 14 13 12 11 8 7 6 7 9 7 5 5
10 17 18 12 16 14 17 18 13 16 14 16 21 12 7 11 5 1 3 7 4 15 18 18 20 16 16 16 17 16 17 15 15 13 11 9 9 9 7 7 4 5 5 7
5 9 7 9 12 16 16 15 19 22 20 16 2 16 19 4 6 4 8 3 11 12 17 18 19 18 17 16 17 17 18 16 16 14 11 11 11 9 2 7 5 5 5 8
2 9 8 9 8 14 19 9 12 12 15 18 15 14 9 6 5 5 4 2 9 12 14 17 17 17 16 18 17 17 18 17 17 15 12 11 12 8 6 7 7 6 7 10
13 9 6 5 11 13 12 15 12 19 13 13 13 8 21 9 4 4 5 3 7 5 14 15 16 16 15 16 18 18 18 18 16 15 13 11 11 12 10 10 8 7 6 6
12 11 10 12 7 10 16 15 19 9 14 13 10 4 26 9 3 6 3 3 7 5 13 12 15 17 16 17 18 17 16 16 16 14 11 13 11 10 12 12 11 10 7 5
4 9 10 9 12 12 10 15 15 19 17 15 14 4 3 8 8 5 8 5 7 4 9 11 16 16 16 16 14 15 15 16 16 12 15 13 12 12 13 13 11 11 8 6
7 14 16 11 13 10 11 12 15 17 14 12 10 13 11 6 6 6 15 7 0 7 11 12 16 16 15 14 13 13 13 14 14 14 14 15 14 14 13 13 12 11 9 8
9 13 13 6 11 6 11 17 14 17 15 18 15 5 9 6 8 8 6 6 5 9 13 16 17 16 16 15 15 14 12 14 14 13 13 14 12 10 8 10 16 12 10 9
11 12 10 11 13 13 11 13 15 20 15 14 18 14 10 7 5 6 10 3 5 10 14 16 18 17 16 16 16 15 15 14 12 11 11 10 11 8 5 8 12 12 12 11
10 9 11 14 14 14 13 13 16 15 15 15 14 10 6 9 12 14 7 5 7 11 15 17 18 18 17 17 16 16 15 13 10 12 12 11 13 12 12 11 11 11 11 10
13 12 12 13 16 18 17 9 20 10 11 16 12 12 8 9 11 15 6 5 7 13 15 16 16 16 17 16 16 15 14 11 11 12 13 14 14 14 13 11 12 11 9 9
12 9 12 12 12 15 17 9 6 30 9 18 16 17 14 12 15 14 12 5 5 13 13 14 14 15 15 17 16 15 12 11 11 13 13 15 14 16 14 13 12 11 10 9
12 9 8 12 15 18 11 6 6 8 8 14 14 14 13 14 10 9 9 8 0 8 12 14 15 14 15 16 16 14 13 11 12 13 13 12 13 14 14 14 13 11 10 9
12 11 14 14 15 13 9 9 6 9 6 12 12 11 11 9 8 9 6 2 3 6 13 13 17 13 13 15 15 12 12 12 13 14 14 12 14 13 13 12 9 10 10 9
11 10 14 9 15 6 14 6 8 9 8 9 9 10 8 9 5 4 3 5 7 8 10 12 12 13 13 14 13 11 9 10 12 14 13 13 13 10 10 12 10 10 10 9
13 14 8 5 2 4 24 5 9 9 9 8 9 9 9 10 5 3 2 5 6 9 9 9 11 10 8 11 11 9 9 12 14 12 12 13 15 12 10 12 11 10 9 8
14 8 10 13 10 4 4 4 4 8 6 9 10 9 9 10 4 3 5 5 5 7 9 10 14 13 13 9 9 9 9 10 11 11 12 10 11 12 12 10 9 8 9 8
7 4 6 11 16 10 5 2 6 8 8 8 9 8 8 7 6 5 7 7 7 8 9 8 11 12 13 12 9 12 13 11 11 12 11 10 11 11 11 8 6 7 4 2
10 11 11 5 6 2 7 7 10 11 10 7 8 9 6 6 7 8 7 8 8 9 8 8 14 11 11 10 11 11 14 13 14 13 11 10 10 10 9 9 7 13 12 10
Wind_Direction
204 226 230 229 230 270 306 291 314 130 102 282 273 317 173 169 194 196 193 187 193 197 187 183 190 189 183 170 183 186 206 180 189 199 199 210 219 214 211 221 227 269 279 243
226 223 238 241 251 238 251 259 252 225 156 264 284 292 294 159 187 209 202 186 199 194 194 191 188 192 195 192 178 189 191 190 200 199 216 228 195 185 54 26 18 337 348 333
232 220 212 250 238 244 257 242 257 339 334 285 262 257 249 172 176 196 208 207 188 199 200 189 189 198 194 196 198 185 194 185 192 217 202 206 255 359 336 267 234 209 222 233
233 246 244 260 245 248 241 239 260 277 265 272 223 293 197 163 181 185 194 205 200 191 196 201 192 194 195 190 193 197 185 197 193 201 189 200 197 209 196 198 158 179 172 213
229 237 240 237 243 238 257 258 265 270 252 260 254 250 278 182 211 183 187 188 208 183 197 202 198 183 196 187 185 185 187 192 202 196 239 184 232 190 214 144 138 142 181 176
263 205 260 245 244 245 252 250 257 266 257 255 263 257 268 182 1 120 151 147 185 200 192 191 203 183 182 178 175 174 178 186 198 195 202 214 186 229 176 179 161 160 201 152
211 229 226 240 245 230 240 239 240 229 229 246 250 241 253 312 189 34 61 68 182 190 190 191 191 191 169 174 171 170 168 178 187 189 192 194 196 191 178 173 208 178 125 137
207 198 203 192 239 234 208 239 238 239 251 251 230 229 211 264 41 297 196 179 150 183 190 193 189 194 168 177 171 171 171 176 179 183 183 184 184 191 217 214 126 207 129 104
205 242 110 217 224 242 233 219 257 264 267 272 310 11 265 224 248 290 230 135 153 185 189 191 190 190 172 178 174 172 169 172 177 177 177 177 184 217 175 128 154 135 119 128
331 271 167 196 235 231 257 265 227 242 269 274 283 181 237 163 195 321 340 19 146 171 193 184 194 186 171 174 175 177 172 174 174 172 180 178 177 179 156 149 204 148 112 95
261 251 140 197 211 233 202 244 250 268 224 253 266 263 2 111 101 290 357 314 55 185 173 194 185 174 164 170 170 181 176 172 175 170 182 173 179 166 174 164 150 149 146 135
232 295 241 224 184 214 233 216 241 234 243 277 307 265 176 266 189 208 302 46 56 297 161 191 173 158 161 173 171 178 177 171 177 169 173 171 173 163 181 161 161 158 144 135
225 244 244 218 182 184 244 257 245 241 254 245 258 313 75 7 346 328 306 87 146 194 147 181 159 156 165 173 167 169 174 173 173 152 172 165 164 178 178 159 165 144 148 103
298 268 286 300 5 351 199 221 251 264 264 267 248 284 290 39 331 329 61 44 278 167 147 159 149 162 163 161 166 163 169 166 150 166 175 164 174 177 190 153 155 140 133 116
259 265 300 292 312 296 299 297 223 244 270 279 286 0 299 41 328 33 43 14 237 160 168 158 161 168 165 163 168 176 159 153 165 178 166 170 170 172 162 170 132 110 125 114
235 271 283 289 281 259 244 271 269 279 228 261 270 283 330 317 293 6 48 332 199 183 167 169 159 163 163 168 179 172 169 177 173 167 162 153 154 129 114 79 102 112 119 111
278 282 304 293 304 300 270 240 243 260 250 240 253 247 317 356 351 323 119 292 190 182 171 169 171 167 173 180 175 170 169 149 147 158 143 162 159 150 122 125 118 121 115 121
269 284 286 277 279 273 276 36 317 300 249 252 247 279 323 315 294 292 19 165 202 178 179 175 167 177 176 174 165 160 149 150 158 153 164 159 157 157 140 139 130 134 134 137
265 258 273 283 270 276 271 345 54 312 246 34 1 356 346 337 350 60 33 11 225 171 176 181 171 177 175 164 158 154 154 154 155 158 167 161 160 156 158 150 143 135 137 138
246 256 259 273 288 283 299 54 345 311 263 30 10 0 355 342 294 58 16 352 83 170 177 180 169 171 179 168 158 152 150 146 160 163 159 162 145 155 154 148 149 145 141 138
226 220 252 237 236 250 13 353 311 253 18 359 356 347 347 329 341 354 350 295 245 191 169 192 166 166 177 170 170 170 150 159 165 165 155 147 153 153 144 133 134 144 153 141
280 218 255 302 306 233 348 314 319 6 338 350 341 331 317 301 316 36 323 276 240 189 178 189 154 160 164 165 177 184 160 147 157 165 163 156 150 137 138 139 143 143 131 144
245 265 307 187 236 58 251 11 353 349 333 331 316 307 297 295 311 63 281 251 184 181 166 153 156 158 134 153 180 167 144 156 162 155 153 140 139 141 141 142 142 143 163 150
215 297 272 283 295 44 10 85 18 355 327 314 303 300 270 271 260 124 148 192 153 152 158 175 145 160 162 163 154 139 122 149 148 139 132 144 136 135 150 152 159 155 173 168
300 354 269 273 263 259 225 117 358 325 305 308 311 301 282 283 259 123 150 173 155 166 166 138 153 162 160 155 149 150 138 143 129 133 148 149 143 154 151 149 177 170 94 130
264 244 260 287 1 287 30 322 317 309 297 288 311 314 282 289 252 143 150 157 170 170 174 164 153 154 158 135 137 142 150 152 149 152 161 157 161 152 167 146 137 53 76 72